Time,TemperatureF,DewpointF,PressureIn,WindDirection,WindDirectionDegrees,WindSpeedMPH,WindSpeedGustMPH,Humidity,HourlyPrecipIn,Conditions,Clouds,dailyrainin,SoftwareType,DateUTC
2013-01-08 00:00:00,22.3,20.8,30.45,East,101,0.0,0.0,94,0.00,,,0.00,meteohub,2013-01-08 05:00:00,
2013-01-08 00:03:00,22.3,20.8,30.45,East,101,0.0,0.0,94,0.00,,,0.00,meteohub,2013-01-08 05:03:00,
2013-01-08 00:04:00,22.3,20.8,30.45,East,101,0.0,0.0,94,0.00,,,0.00,meteohub,2013-01-08 05:04:00,
2013-01-08 00:09:00,22.3,20.8,30.45,East,101,0.0,0.0,94,0.00,,,0.00,meteohub,2013-01-08 05:09:00,
2013-01-08 00:14:00,22.3,20.5,30.45,East,101,0.0,0.0,93,0.00,,,0.00,meteohub,2013-01-08 05:14:00,
2013-01-08 00:19:00,21.9,20.1,30.45,East,101,0.0,0.0,93,0.00,,,0.00,meteohub,2013-01-08 05:19:00,
2013-01-08 00:24:00,21.9,20.1,30.45,East,101,0.0,0.0,93,0.00,,,0.00,meteohub,2013-01-08 05:24:00,
2013-01-08 00:29:00,21.9,20.1,30.45,East,101,0.0,0.0,93,0.00,,,0.00,meteohub,2013-01-08 05:29:00,
2013-01-08 00:34:00,22.1,20.7,30.45,East,101,0.0,0.0,94,0.00,,,0.00,meteohub,2013-01-08 05:34:00,
2013-01-08 00:39:00,22.3,20.8,30.45,East,101,0.0,1.0,94,0.00,,,0.00,meteohub,2013-01-08 05:39:00,
2013-01-08 00:44:00,22.6,21.2,30.45,East,101,0.0,1.0,94,0.00,,,0.00,meteohub,2013-01-08 05:44:00,
2013-01-08 00:49:00,23.2,21.7,30.45,East,101,0.0,0.0,94,0.00,,,0.00,meteohub,2013-01-08 05:49:00,
2013-01-08 00:54:00,24.1,22.8,30.45,East,101,0.0,1.0,95,0.00,,,0.00,meteohub,2013-01-08 05:54:00,
2013-01-08 00:59:00,25.2,23.9,30.44,WSW,258,0.0,2.0,95,0.00,,,0.00,meteohub,2013-01-08 05:59:00,
2013-01-08 01:05:00,25.7,24.4,30.44,WSW,258,0.0,2.0,95,0.00,,,0.00,meteohub,2013-01-08 06:05:00,
2013-01-08 01:10:00,26.4,25.2,30.44,WSW,258,0.0,2.0,95,0.00,,,0.00,meteohub,2013-01-08 06:10:00,
2013-01-08 01:15:00,27.3,26.1,30.44,WSW,258,1.0,2.0,95,0.00,,,0.00,meteohub,2013-01-08 06:15:00,
2013-01-08 01:20:00,28.6,27.5,30.44,WSW,257,1.0,4.0,96,0.00,,,0.00,meteohub,2013-01-08 06:20:00,
2013-01-08 01:25:00,29.7,28.6,30.44,WSW,242,1.0,4.0,96,0.00,,,0.00,meteohub,2013-01-08 06:25:00,
2013-01-08 01:30:00,30.6,29.5,30.44,WSW,242,0.0,4.0,96,0.00,,,0.00,meteohub,2013-01-08 06:30:00,
2013-01-08 01:35:00,30.7,29.5,30.44,WSW,242,0.0,3.0,95,0.00,,,0.00,meteohub,2013-01-08 06:35:00,
2013-01-08 01:40:00,31.1,29.8,30.45,WSW,242,1.0,3.0,95,0.00,,,0.00,meteohub,2013-01-08 06:40:00,
2013-01-08 01:45:00,31.5,30.2,30.44,WSW,242,0.0,3.0,95,0.00,,,0.00,meteohub,2013-01-08 06:45:00,
2013-01-08 01:50:00,31.6,30.4,30.44,West,273,2.0,4.0,95,0.00,,,0.00,meteohub,2013-01-08 06:50:00,
2013-01-08 01:55:00,32.0,30.7,30.44,West,273,0.0,4.0,95,0.00,,,0.00,meteohub,2013-01-08 06:55:00,
2013-01-08 02:01:00,32.4,31.1,30.45,West,271,2.0,6.0,95,0.00,,,0.00,meteohub,2013-01-08 07:01:00,
2013-01-08 02:06:00,33.1,31.8,30.45,WSW,254,2.0,6.0,95,0.00,,,0.00,meteohub,2013-01-08 07:06:00,
2013-01-08 02:11:00,33.4,32.2,30.45,West,266,4.0,6.0,95,0.00,,,0.00,meteohub,2013-01-08 07:11:00,
2013-01-08 02:16:00,34.2,32.9,30.44,West,264,2.0,6.0,95,0.00,,,0.00,meteohub,2013-01-08 07:16:00,
2013-01-08 02:21:00,34.5,32.9,30.44,WSW,242,5.0,6.0,94,0.00,,,0.00,meteohub,2013-01-08 07:21:00,
2013-01-08 02:26:00,35.1,33.4,30.44,WNW,301,3.0,8.0,94,0.00,,,0.00,meteohub,2013-01-08 07:26:00,
2013-01-08 02:31:00,35.4,33.6,30.44,West,279,6.0,8.0,93,0.00,,,0.00,meteohub,2013-01-08 07:31:00,
2013-01-08 02:36:00,36.0,33.8,30.44,WNW,284,2.0,9.0,92,0.00,,,0.00,meteohub,2013-01-08 07:36:00,
2013-01-08 02:41:00,36.1,33.8,30.44,WNW,291,3.0,9.0,91,0.00,,,0.00,meteohub,2013-01-08 07:41:00,
2013-01-08 02:46:00,36.3,34.0,30.44,NW,308,2.0,8.0,91,0.00,,,0.00,meteohub,2013-01-08 07:46:00,
2013-01-08 02:51:00,36.3,33.6,30.44,NW,312,2.0,7.0,90,0.00,,,0.00,meteohub,2013-01-08 07:51:00,
2013-01-08 02:56:00,36.3,33.6,30.44,WNW,285,3.0,8.0,90,0.00,,,0.00,meteohub,2013-01-08 07:56:00,
2013-01-08 03:01:00,36.3,33.6,30.44,WNW,288,1.0,8.0,90,0.00,,,0.00,meteohub,2013-01-08 08:01:00,
2013-01-08 03:06:00,36.1,33.4,30.44,WNW,291,1.0,7.0,90,0.00,,,0.00,meteohub,2013-01-08 08:06:00,
2013-01-08 03:11:00,36.0,33.3,30.44,WNW,291,1.0,6.0,90,0.00,,,0.00,meteohub,2013-01-08 08:11:00,
2013-01-08 03:16:00,36.0,33.3,30.44,WNW,296,1.0,5.0,90,0.00,,,0.00,meteohub,2013-01-08 08:16:00,
2013-01-08 03:21:00,35.6,32.9,30.43,WNW,296,1.0,4.0,90,0.00,,,0.00,meteohub,2013-01-08 08:21:00,
2013-01-08 03:27:00,35.2,32.5,30.43,WNW,296,0.0,4.0,90,0.00,,,0.00,meteohub,2013-01-08 08:27:00,
2013-01-08 03:32:00,34.9,32.2,30.43,WNW,296,0.0,2.0,90,0.00,,,0.00,meteohub,2013-01-08 08:32:00,
2013-01-08 03:37:00,34.3,31.6,30.43,WNW,296,0.0,2.0,90,0.00,,,0.00,meteohub,2013-01-08 08:37:00,
2013-01-08 03:42:00,33.4,30.6,30.43,WNW,296,0.0,1.0,89,0.00,,,0.00,meteohub,2013-01-08 08:42:00,
2013-01-08 03:47:00,32.9,30.0,30.42,WNW,296,0.0,1.0,89,0.00,,,0.00,meteohub,2013-01-08 08:47:00,
2013-01-08 03:52:00,32.4,29.8,30.42,WNW,296,0.0,0.0,90,0.00,,,0.00,meteohub,2013-01-08 08:52:00,
2013-01-08 03:57:00,32.2,29.7,30.42,WNW,296,0.0,0.0,90,0.00,,,0.00,meteohub,2013-01-08 08:57:00,
2013-01-08 04:02:00,32.4,30.4,30.42,WNW,296,0.0,2.0,92,0.00,,,0.00,meteohub,2013-01-08 09:02:00,
2013-01-08 04:07:00,32.7,30.7,30.42,WNW,296,0.0,2.0,92,0.00,,,0.00,meteohub,2013-01-08 09:07:00,
2013-01-08 04:12:00,33.1,31.1,30.42,NW,309,1.0,2.0,92,0.00,,,0.00,meteohub,2013-01-08 09:12:00,
2013-01-08 04:17:00,33.3,31.5,30.42,NW,309,0.0,5.0,93,0.00,,,0.00,meteohub,2013-01-08 09:17:00,
2013-01-08 04:22:00,33.3,31.1,30.42,NW,309,1.0,5.0,92,0.00,,,0.00,meteohub,2013-01-08 09:22:00,
2013-01-08 04:27:00,33.6,31.8,30.41,WNW,296,0.0,5.0,93,0.00,,,0.00,meteohub,2013-01-08 09:27:00,
2013-01-08 04:32:00,33.6,31.5,30.42,WNW,296,1.0,4.0,92,0.00,,,0.00,meteohub,2013-01-08 09:32:00,
2013-01-08 04:37:00,33.6,31.8,30.41,WNW,296,0.0,4.0,93,0.00,,,0.00,meteohub,2013-01-08 09:37:00,
2013-01-08 04:42:00,33.4,31.3,30.41,WNW,296,0.0,3.0,92,0.00,,,0.00,meteohub,2013-01-08 09:42:00,
2013-01-08 04:47:00,33.1,31.1,30.41,WNW,296,0.0,3.0,92,0.00,,,0.00,meteohub,2013-01-08 09:47:00,
2013-01-08 04:52:00,32.4,30.4,30.41,WNW,296,1.0,2.0,92,0.00,,,0.00,meteohub,2013-01-08 09:52:00,
2013-01-08 04:57:00,32.0,30.0,30.41,WNW,296,0.0,2.0,92,0.00,,,0.00,meteohub,2013-01-08 09:57:00,
2013-01-08 05:02:00,32.5,30.7,30.41,WNW,296,1.0,2.0,93,0.00,,,0.00,meteohub,2013-01-08 10:02:00,
2013-01-08 05:07:00,32.7,30.9,30.41,WNW,296,2.0,3.0,93,0.00,,,0.00,meteohub,2013-01-08 10:07:00,
2013-01-08 05:12:00,33.1,31.3,30.41,WNW,296,2.0,3.0,93,0.00,,,0.00,meteohub,2013-01-08 10:12:00,
2013-01-08 05:17:00,33.1,31.3,30.41,WNW,296,2.0,4.0,93,0.00,,,0.00,meteohub,2013-01-08 10:17:00,
2013-01-08 05:22:00,33.4,31.3,30.41,NNW,329,2.0,4.0,92,0.00,,,0.00,meteohub,2013-01-08 10:22:00,
2013-01-08 05:27:00,33.4,31.3,30.41,NNW,328,1.0,4.0,92,0.00,,,0.00,meteohub,2013-01-08 10:27:00,
2013-01-08 05:32:00,33.6,31.5,30.41,NW,314,2.0,4.0,92,0.00,,,0.00,meteohub,2013-01-08 10:32:00,
2013-01-08 05:37:00,34.0,31.8,30.41,NW,306,3.0,5.0,92,0.00,,,0.00,meteohub,2013-01-08 10:37:00,
2013-01-08 05:42:00,34.3,32.0,30.41,WNW,294,2.0,5.0,91,0.00,,,0.00,meteohub,2013-01-08 10:42:00,
2013-01-08 05:47:00,34.5,31.8,30.41,WNW,292,2.0,4.0,90,0.00,,,0.00,meteohub,2013-01-08 10:47:00,
2013-01-08 05:52:00,34.9,32.2,30.41,WNW,290,2.0,6.0,90,0.00,,,0.00,meteohub,2013-01-08 10:52:00,
2013-01-08 05:57:00,35.4,32.5,30.42,WNW,289,3.0,8.0,89,0.00,,,0.00,meteohub,2013-01-08 10:57:00,
2013-01-08 06:02:00,35.8,32.9,30.42,WNW,302,3.0,8.0,89,0.00,,,0.00,meteohub,2013-01-08 11:02:00,
2013-01-08 06:07:00,36.1,32.9,30.42,WNW,288,3.0,8.0,88,0.00,,,0.00,meteohub,2013-01-08 11:07:00,
2013-01-08 06:12:00,36.7,33.4,30.42,NNW,335,2.0,7.0,88,0.00,,,0.00,meteohub,2013-01-08 11:12:00,
2013-01-08 06:17:00,36.9,33.6,30.42,West,281,6.0,7.0,88,0.00,,,0.00,meteohub,2013-01-08 11:17:00,
2013-01-08 06:22:00,36.9,33.4,30.42,NW,320,5.0,8.0,87,0.00,,,0.00,meteohub,2013-01-08 11:22:00,
2013-01-08 06:27:00,36.9,33.4,30.41,WNW,282,4.0,8.0,87,0.00,,,0.00,meteohub,2013-01-08 11:27:00,
2013-01-08 06:32:00,36.9,33.4,30.42,NW,313,4.0,9.0,87,0.00,,,0.00,meteohub,2013-01-08 11:32:00,
2013-01-08 06:37:00,36.9,33.4,30.41,NW,313,3.0,9.0,87,0.00,,,0.00,meteohub,2013-01-08 11:37:00,
2013-01-08 06:42:00,37.2,33.8,30.42,NW,309,7.0,10.0,87,0.00,,,0.00,meteohub,2013-01-08 11:42:00,
2013-01-08 06:47:00,37.6,33.8,30.42,NW,304,4.0,10.0,86,0.00,,,0.00,meteohub,2013-01-08 11:47:00,
2013-01-08 06:52:00,37.8,34.0,30.42,NNW,329,3.0,10.0,86,0.00,,,0.00,meteohub,2013-01-08 11:52:00,
2013-01-08 06:57:00,37.9,33.8,30.42,NW,307,5.0,9.0,85,0.00,,,0.00,meteohub,2013-01-08 11:57:00,
2013-01-08 07:02:00,38.1,34.0,30.42,WNW,300,4.0,9.0,85,0.00,,,0.00,meteohub,2013-01-08 12:02:00,
2013-01-08 07:07:00,38.3,34.2,30.42,NW,306,5.0,11.0,85,0.00,,,0.00,meteohub,2013-01-08 12:07:00,
2013-01-08 07:12:00,38.5,34.3,30.42,NW,325,6.0,11.0,85,0.00,,,0.00,meteohub,2013-01-08 12:12:00,
2013-01-08 07:17:00,38.7,34.5,30.42,NW,314,9.0,10.0,85,0.00,,,0.00,meteohub,2013-01-08 12:17:00,
2013-01-08 07:22:00,39.0,34.5,30.43,WNW,296,7.0,12.0,84,0.00,,,0.00,meteohub,2013-01-08 12:22:00,
2013-01-08 07:27:00,39.6,35.1,30.43,WNW,299,4.0,15.0,84,0.00,,,0.00,meteohub,2013-01-08 12:27:00,
2013-01-08 07:32:00,39.6,34.9,30.43,WNW,298,3.0,15.0,83,0.00,,,0.00,meteohub,2013-01-08 12:32:00,
2013-01-08 07:37:00,39.9,35.2,30.43,NW,307,7.0,11.0,83,0.00,,,0.00,meteohub,2013-01-08 12:37:00,
2013-01-08 07:42:00,40.1,35.4,30.43,WNW,290,6.0,12.0,83,0.00,,,0.00,meteohub,2013-01-08 12:42:00,
2013-01-08 07:47:00,40.3,35.8,30.43,NW,311,9.0,14.0,84,0.00,,,0.00,meteohub,2013-01-08 12:47:00,
2013-01-08 07:52:00,40.5,36.0,30.43,WNW,302,3.0,14.0,84,0.00,,,0.00,meteohub,2013-01-08 12:52:00,
2013-01-08 07:57:00,40.6,36.0,30.43,WNW,296,6.0,14.0,83,0.00,,,0.00,meteohub,2013-01-08 12:57:00,
2013-01-08 08:02:00,40.6,36.0,30.44,NW,311,7.0,17.0,83,0.00,,,0.00,meteohub,2013-01-08 13:02:00,
2013-01-08 08:07:00,40.8,35.8,30.44,WNW,297,8.0,17.0,82,0.00,,,0.00,meteohub,2013-01-08 13:07:00,
2013-01-08 08:12:00,41.2,35.8,30.44,NW,323,7.0,15.0,81,0.00,,,0.00,meteohub,2013-01-08 13:12:00,
2013-01-08 08:17:00,41.4,35.6,30.44,NW,311,3.0,15.0,80,0.00,,,0.00,meteohub,2013-01-08 13:17:00,
2013-01-08 08:22:00,41.5,35.6,30.44,NW,320,10.0,15.0,79,0.00,,,0.00,meteohub,2013-01-08 13:22:00,
2013-01-08 08:27:00,41.5,35.2,30.44,WNW,286,3.0,17.0,78,0.00,,,0.00,meteohub,2013-01-08 13:27:00,
2013-01-08 08:32:00,41.7,35.1,30.44,NNW,336,10.0,17.0,77,0.00,,,0.00,meteohub,2013-01-08 13:32:00,
2013-01-08 08:37:00,41.9,34.9,30.44,NE,46,7.0,17.0,76,0.00,,,0.00,meteohub,2013-01-08 13:37:00,
2013-01-08 08:42:00,42.1,34.7,30.44,NNW,346,10.0,17.0,75,0.00,,,0.00,meteohub,2013-01-08 13:42:00,
2013-01-08 08:47:00,42.3,34.9,30.44,NW,316,9.0,21.0,75,0.00,,,0.00,meteohub,2013-01-08 13:47:00,
2013-01-08 08:52:00,42.3,34.2,30.45,WNW,290,9.0,21.0,73,0.00,,,0.00,meteohub,2013-01-08 13:52:00,
2013-01-08 08:57:00,42.4,34.0,30.45,NNW,340,11.0,16.0,72,0.00,,,0.00,meteohub,2013-01-08 13:57:00,
2013-01-08 09:02:00,42.4,33.6,30.45,NW,318,16.0,18.0,71,0.00,,,0.00,meteohub,2013-01-08 14:02:00,
2013-01-08 09:07:00,42.6,34.2,30.45,WNW,296,13.0,22.0,72,0.00,,,0.00,meteohub,2013-01-08 14:07:00,
2013-01-08 09:12:00,42.6,33.8,30.45,North,355,4.0,22.0,71,0.00,,,0.00,meteohub,2013-01-08 14:12:00,
2013-01-08 09:17:00,42.8,34.0,30.46,NW,318,15.0,23.0,71,0.00,,,0.00,meteohub,2013-01-08 14:17:00,
2013-01-08 09:22:00,43.0,34.2,30.45,NNE,22,8.0,23.0,71,0.00,,,0.00,meteohub,2013-01-08 14:22:00,
2013-01-08 09:27:00,43.2,34.0,30.45,NNW,331,10.0,25.0,70,0.00,,,0.00,meteohub,2013-01-08 14:27:00,
2013-01-08 09:32:00,43.2,33.6,30.45,NW,315,8.0,25.0,69,0.00,,,0.00,meteohub,2013-01-08 14:32:00,
2013-01-08 09:37:00,43.0,33.1,30.45,NW,306,8.0,25.0,68,0.00,,,0.00,meteohub,2013-01-08 14:37:00,
2013-01-08 09:42:00,43.2,33.3,30.45,NNW,346,16.0,22.0,68,0.00,,,0.00,meteohub,2013-01-08 14:42:00,
2013-01-08 09:47:00,43.2,32.9,30.45,NW,306,9.0,22.0,67,0.00,,,0.00,meteohub,2013-01-08 14:47:00,
2013-01-08 09:52:00,43.3,33.1,30.44,WNW,300,8.0,22.0,67,0.00,,,0.00,meteohub,2013-01-08 14:52:00,
2013-01-08 09:57:00,43.5,32.9,30.45,WNW,285,9.0,24.0,66,0.00,,,0.00,meteohub,2013-01-08 14:57:00,
2013-01-08 10:02:00,43.5,32.9,30.45,NNW,332,6.0,24.0,66,0.00,,,0.00,meteohub,2013-01-08 15:02:00,
2013-01-08 10:07:00,43.9,33.3,30.45,WNW,288,6.0,24.0,66,0.00,,,0.00,meteohub,2013-01-08 15:07:00,
2013-01-08 10:12:00,43.9,32.9,30.45,NW,319,15.0,24.0,65,0.00,,,0.00,meteohub,2013-01-08 15:12:00,
2013-01-08 10:17:00,44.1,33.1,30.45,WNW,286,11.0,22.0,65,0.00,,,0.00,meteohub,2013-01-08 15:17:00,
2013-01-08 10:22:00,44.2,33.3,30.44,NW,311,12.0,22.0,65,0.00,,,0.00,meteohub,2013-01-08 15:22:00,
2013-01-08 10:27:00,44.1,33.1,30.44,North,350,6.0,23.0,65,0.00,,,0.00,meteohub,2013-01-08 15:27:00,
2013-01-08 10:32:00,44.4,33.4,30.44,North,5,4.0,23.0,65,0.00,,,0.00,meteohub,2013-01-08 15:32:00,
2013-01-08 10:37:00,44.2,33.3,30.44,NW,313,16.0,23.0,65,0.00,,,0.00,meteohub,2013-01-08 15:37:00,
2013-01-08 10:42:00,44.2,33.6,30.43,NNE,33,3.0,23.0,66,0.00,,,0.00,meteohub,2013-01-08 15:42:00,
2013-01-08 10:47:00,44.4,33.4,30.43,WNW,284,10.0,23.0,65,0.00,,,0.00,meteohub,2013-01-08 15:47:00,
2013-01-08 10:52:00,44.2,33.6,30.43,NNW,347,6.0,24.0,66,0.00,,,0.00,meteohub,2013-01-08 15:52:00,
2013-01-08 10:57:00,44.4,33.8,30.43,NNW,335,9.0,24.0,66,0.00,,,0.00,meteohub,2013-01-08 15:57:00,
2013-01-08 11:02:00,44.2,34.0,30.43,WNW,299,15.0,24.0,67,0.00,,,0.00,meteohub,2013-01-08 16:02:00,
2013-01-08 11:07:00,44.2,34.0,30.42,NW,304,14.0,27.0,67,0.00,,,0.00,meteohub,2013-01-08 16:07:00,
2013-01-08 11:12:00,44.4,34.2,30.42,NNW,335,8.0,27.0,67,0.00,,,0.00,meteohub,2013-01-08 16:12:00,
2013-01-08 11:17:00,44.6,34.3,30.42,NNW,336,11.0,21.0,67,0.00,,,0.00,meteohub,2013-01-08 16:17:00,
2013-01-08 11:22:00,44.8,34.2,30.42,WNW,302,17.0,21.0,66,0.00,,,0.00,meteohub,2013-01-08 16:22:00,
2013-01-08 11:27:00,45.0,34.3,30.41,WNW,303,14.0,21.0,66,0.00,,,0.00,meteohub,2013-01-08 16:27:00,
2013-01-08 11:32:00,44.6,34.3,30.41,NW,315,16.0,20.0,67,0.00,,,0.00,meteohub,2013-01-08 16:32:00,
2013-01-08 11:37:00,44.8,34.5,30.41,NNW,329,8.0,21.0,67,0.00,,,0.00,meteohub,2013-01-08 16:37:00,
2013-01-08 11:42:00,44.8,34.5,30.41,WNW,290,12.0,23.0,67,0.00,,,0.00,meteohub,2013-01-08 16:42:00,
2013-01-08 11:47:00,45.0,34.3,30.41,WNW,303,17.0,23.0,66,0.00,,,0.00,meteohub,2013-01-08 16:47:00,
2013-01-08 11:52:00,45.0,34.7,30.40,NW,310,8.0,23.0,67,0.00,,,0.00,meteohub,2013-01-08 16:52:00,
2013-01-08 11:57:00,45.1,34.9,30.40,West,280,10.0,21.0,67,0.00,,,0.00,meteohub,2013-01-08 16:57:00,
2013-01-08 12:02:00,44.8,34.9,30.40,NNW,332,10.0,22.0,68,0.00,,,0.00,meteohub,2013-01-08 17:02:00,
2013-01-08 12:07:00,44.8,34.9,30.39,North,355,4.0,28.0,68,0.00,,,0.00,meteohub,2013-01-08 17:07:00,
2013-01-08 12:12:00,45.1,35.2,30.39,NW,311,13.0,28.0,68,0.00,,,0.00,meteohub,2013-01-08 17:12:00,
2013-01-08 12:17:00,45.7,35.8,30.39,West,268,3.0,28.0,68,0.00,,,0.00,meteohub,2013-01-08 17:17:00,
2013-01-08 12:22:00,45.7,35.4,30.38,North,5,6.0,19.0,67,0.00,,,0.00,meteohub,2013-01-08 17:22:00,
2013-01-08 12:27:00,45.7,35.4,30.38,NW,323,6.0,19.0,67,0.00,,,0.00,meteohub,2013-01-08 17:27:00,
2013-01-08 12:32:00,45.5,35.2,30.38,NW,319,13.0,21.0,67,0.00,,,0.00,meteohub,2013-01-08 17:32:00,
2013-01-08 12:37:00,45.7,35.4,30.38,NNW,336,9.0,21.0,67,0.00,,,0.00,meteohub,2013-01-08 17:37:00,
2013-01-08 12:42:00,45.3,35.4,30.37,NNW,331,4.0,21.0,68,0.00,,,0.00,meteohub,2013-01-08 17:42:00,
2013-01-08 12:47:00,45.3,35.4,30.38,WNW,296,22.0,24.0,68,0.00,,,0.00,meteohub,2013-01-08 17:47:00,
2013-01-08 12:52:00,45.3,35.4,30.38,WNW,296,3.0,24.0,68,0.00,,,0.00,meteohub,2013-01-08 17:52:00,
2013-01-08 12:57:00,45.3,35.8,30.37,West,262,19.0,23.0,69,0.00,,,0.00,meteohub,2013-01-08 17:57:00,
2013-01-08 13:02:00,45.3,35.8,30.37,NW,320,9.0,22.0,69,0.00,,,0.00,meteohub,2013-01-08 18:02:00,
2013-01-08 13:07:00,45.3,35.8,30.37,WNW,292,9.0,22.0,69,0.00,,,0.00,meteohub,2013-01-08 18:07:00,
2013-01-08 13:12:00,45.7,36.1,30.38,NW,310,10.0,22.0,69,0.00,,,0.00,meteohub,2013-01-08 18:12:00,
2013-01-08 13:17:00,45.7,36.1,30.37,NW,325,17.0,19.0,69,0.00,,,0.00,meteohub,2013-01-08 18:17:00,
2013-01-08 13:22:00,45.1,36.3,30.37,NNW,331,14.0,23.0,71,0.00,,,0.00,meteohub,2013-01-08 18:22:00,
2013-01-08 13:27:00,45.1,36.7,30.36,NNW,329,5.0,23.0,72,0.00,,,0.00,meteohub,2013-01-08 18:27:00,
2013-01-08 13:32:00,45.3,36.9,30.36,North,355,2.0,23.0,72,0.00,,,0.00,meteohub,2013-01-08 18:32:00,
2013-01-08 13:37:00,45.9,37.4,30.37,NW,306,11.0,20.0,72,0.00,,,0.00,meteohub,2013-01-08 18:37:00,
2013-01-08 13:42:00,45.3,37.2,30.37,NW,306,13.0,18.0,73,0.00,,,0.00,meteohub,2013-01-08 18:42:00,
2013-01-08 13:47:00,45.3,37.2,30.37,WNW,292,10.0,19.0,73,0.00,,,0.00,meteohub,2013-01-08 18:47:00,
2013-01-08 13:52:00,45.1,37.4,30.37,ENE,78,4.0,19.0,74,0.00,,,0.00,meteohub,2013-01-08 18:52:00,
2013-01-08 13:57:00,45.0,37.2,30.37,NE,34,4.0,18.0,74,0.00,,,0.00,meteohub,2013-01-08 18:57:00,
2013-01-08 14:02:00,45.0,37.2,30.38,WNW,296,9.0,22.0,74,0.00,,,0.00,meteohub,2013-01-08 19:02:00,
2013-01-08 14:07:00,44.8,37.0,30.38,NW,320,5.0,22.0,74,0.00,,,0.00,meteohub,2013-01-08 19:07:00,
2013-01-08 14:12:00,44.6,37.2,30.38,NNW,344,2.0,22.0,75,0.00,,,0.00,meteohub,2013-01-08 19:12:00,
2013-01-08 14:17:00,44.4,37.0,30.38,NW,305,10.0,18.0,75,0.00,,,0.00,meteohub,2013-01-08 19:17:00,
2013-01-08 14:22:00,44.2,36.9,30.38,NW,319,7.0,20.0,75,0.00,,,0.00,meteohub,2013-01-08 19:22:00,
2013-01-08 14:27:00,44.2,36.9,30.38,NW,304,10.0,20.0,75,0.00,,,0.00,meteohub,2013-01-08 19:27:00,
2013-01-08 14:32:00,44.2,36.9,30.38,NNW,332,5.0,20.0,75,0.00,,,0.00,meteohub,2013-01-08 19:32:00,
2013-01-08 14:37:00,44.2,36.5,30.38,WNW,301,12.0,18.0,74,0.00,,,0.00,meteohub,2013-01-08 19:37:00,
2013-01-08 14:42:00,44.2,36.5,30.38,WNW,297,6.0,18.0,74,0.00,,,0.00,meteohub,2013-01-08 19:42:00,
2013-01-08 14:47:00,44.2,36.5,30.38,WNW,288,4.0,18.0,74,0.00,,,0.00,meteohub,2013-01-08 19:47:00,
2013-01-08 14:52:00,44.4,36.7,30.38,WNW,290,3.0,17.0,74,0.00,,,0.00,meteohub,2013-01-08 19:52:00,
2013-01-08 14:57:00,44.4,36.7,30.38,NNW,340,5.0,12.0,74,0.00,,,0.00,meteohub,2013-01-08 19:57:00,
2013-01-08 15:02:00,44.6,36.1,30.38,NW,308,9.0,18.0,72,0.00,,,0.00,meteohub,2013-01-08 20:02:00,
2013-01-08 15:07:00,44.8,36.0,30.38,NW,319,12.0,24.0,71,0.00,,,0.00,meteohub,2013-01-08 20:07:00,
2013-01-08 15:12:00,45.0,35.8,30.39,NNW,329,16.0,24.0,70,0.00,,,0.00,meteohub,2013-01-08 20:12:00,
2013-01-08 15:17:00,45.3,36.1,30.38,NW,308,10.0,24.0,70,0.00,,,0.00,meteohub,2013-01-08 20:17:00,
2013-01-08 15:22:00,45.1,36.0,30.38,NNW,329,8.0,22.0,70,0.00,,,0.00,meteohub,2013-01-08 20:22:00,
2013-01-08 15:27:00,45.1,36.0,30.38,West,272,8.0,22.0,70,0.00,,,0.00,meteohub,2013-01-08 20:27:00,
2013-01-08 15:32:00,45.0,35.8,30.38,WNW,303,8.0,15.0,70,0.00,,,0.00,meteohub,2013-01-08 20:32:00,
2013-01-08 15:37:00,44.8,35.6,30.38,NNW,329,11.0,15.0,70,0.00,,,0.00,meteohub,2013-01-08 20:37:00,
2013-01-08 15:42:00,45.0,35.8,30.38,WNW,291,13.0,20.0,70,0.00,,,0.00,meteohub,2013-01-08 20:42:00,
2013-01-08 15:47:00,45.0,35.8,30.38,NW,316,8.0,20.0,70,0.00,,,0.00,meteohub,2013-01-08 20:47:00,
2013-01-08 15:52:00,44.8,35.2,30.38,NW,321,8.0,20.0,69,0.00,,,0.00,meteohub,2013-01-08 20:52:00,
2013-01-08 15:57:00,44.8,34.9,30.38,NW,324,7.0,18.0,68,0.00,,,0.00,meteohub,2013-01-08 20:57:00,
2013-01-08 16:02:00,44.8,35.2,30.38,NNW,329,8.0,18.0,69,0.00,,,0.00,meteohub,2013-01-08 21:02:00,
2013-01-08 16:07:00,44.4,34.9,30.38,NW,306,6.0,14.0,69,0.00,,,0.00,meteohub,2013-01-08 21:07:00,
2013-01-08 16:12:00,44.1,34.9,30.38,NW,304,5.0,14.0,70,0.00,,,0.00,meteohub,2013-01-08 21:12:00,
2013-01-08 16:17:00,43.7,35.6,30.38,WNW,300,5.0,14.0,73,0.00,,,0.00,meteohub,2013-01-08 21:17:00,
2013-01-08 16:22:00,43.3,35.6,30.38,NW,313,3.0,10.0,74,0.00,,,0.00,meteohub,2013-01-08 21:22:00,
2013-01-08 16:27:00,43.2,35.4,30.38,WSW,250,2.0,11.0,74,0.00,,,0.00,meteohub,2013-01-08 21:27:00,
2013-01-08 16:32:00,43.0,35.6,30.38,WNW,296,2.0,11.0,75,0.00,,,0.00,meteohub,2013-01-08 21:32:00,
2013-01-08 16:37:00,42.6,35.6,30.38,WNW,298,6.0,11.0,76,0.00,,,0.00,meteohub,2013-01-08 21:37:00,
2013-01-08 16:42:00,42.4,35.8,30.38,NW,309,7.0,10.0,77,0.00,,,0.00,meteohub,2013-01-08 21:42:00,
2013-01-08 16:47:00,42.3,36.0,30.38,WNW,296,4.0,10.0,78,0.00,,,0.00,meteohub,2013-01-08 21:47:00,
2013-01-08 16:52:00,42.3,36.1,30.38,NW,315,5.0,10.0,79,0.00,,,0.00,meteohub,2013-01-08 21:52:00,
2013-01-08 16:57:00,42.1,36.0,30.38,WNW,288,7.0,10.0,79,0.00,,,0.00,meteohub,2013-01-08 21:57:00,
2013-01-08 17:02:00,41.9,36.1,30.38,NNW,348,6.0,10.0,80,0.00,,,0.00,meteohub,2013-01-08 22:02:00,
2013-01-08 17:07:00,41.7,36.0,30.38,NW,321,8.0,10.0,80,0.00,,,0.00,meteohub,2013-01-08 22:07:00,
2013-01-08 17:12:00,41.5,36.1,30.38,WNW,295,6.0,10.0,81,0.00,,,0.00,meteohub,2013-01-08 22:12:00,
2013-01-08 17:17:00,41.5,36.1,30.38,WNW,288,6.0,10.0,81,0.00,,,0.00,meteohub,2013-01-08 22:17:00,
2013-01-08 17:22:00,41.5,36.1,30.38,WNW,295,7.0,10.0,81,0.00,,,0.00,meteohub,2013-01-08 22:22:00,
2013-01-08 17:27:00,41.5,36.1,30.38,NW,321,6.0,11.0,81,0.00,,,0.00,meteohub,2013-01-08 22:27:00,
2013-01-08 17:32:00,41.4,36.3,30.39,NW,323,7.0,11.0,82,0.00,,,0.00,meteohub,2013-01-08 22:32:00,
2013-01-08 17:37:00,41.4,36.3,30.39,West,274,4.0,11.0,82,0.00,,,0.00,meteohub,2013-01-08 22:37:00,
2013-01-08 17:42:00,41.4,36.3,30.40,NW,316,6.0,10.0,82,0.00,,,0.00,meteohub,2013-01-08 22:42:00,
2013-01-08 17:47:00,41.4,36.3,30.40,NW,315,5.0,9.0,82,0.00,,,0.00,meteohub,2013-01-08 22:47:00,
2013-01-08 17:52:00,41.2,36.1,30.40,NW,311,3.0,9.0,82,0.00,,,0.00,meteohub,2013-01-08 22:52:00,
2013-01-08 17:57:00,41.2,36.1,30.40,NW,315,4.0,9.0,82,0.00,,,0.00,meteohub,2013-01-08 22:57:00,
2013-01-08 18:02:00,41.2,36.1,30.40,NW,312,5.0,8.0,82,0.00,,,0.00,meteohub,2013-01-08 23:02:00,
2013-01-08 18:07:00,41.0,36.0,30.41,NW,322,4.0,8.0,82,0.00,,,0.00,meteohub,2013-01-08 23:07:00,
2013-01-08 18:12:00,40.8,36.1,30.41,NW,316,1.0,8.0,83,0.00,,,0.00,meteohub,2013-01-08 23:12:00,
2013-01-08 18:17:00,40.6,35.6,30.41,NW,316,4.0,8.0,82,0.00,,,0.00,meteohub,2013-01-08 23:17:00,
2013-01-08 18:22:00,40.5,35.4,30.41,NNW,327,2.0,5.0,82,0.00,,,0.00,meteohub,2013-01-08 23:22:00,
2013-01-08 18:27:00,40.3,35.2,30.42,NW,309,3.0,5.0,82,0.00,,,0.00,meteohub,2013-01-08 23:27:00,
2013-01-08 18:32:00,40.1,35.1,30.42,WNW,301,4.0,5.0,82,0.00,,,0.00,meteohub,2013-01-08 23:32:00,
2013-01-08 18:37:00,40.1,35.4,30.42,NW,312,4.0,6.0,83,0.00,,,0.00,meteohub,2013-01-08 23:37:00,
2013-01-08 18:42:00,40.5,35.8,30.42,NW,313,6.0,9.0,83,0.00,,,0.00,meteohub,2013-01-08 23:42:00,
2013-01-08 18:47:00,40.6,36.0,30.42,WNW,289,6.0,10.0,83,0.00,,,0.00,meteohub,2013-01-08 23:47:00,
2013-01-08 18:52:00,40.8,36.3,30.42,NW,319,7.0,10.0,84,0.00,,,0.00,meteohub,2013-01-08 23:52:00,
2013-01-08 18:57:00,40.8,36.3,30.42,NW,315,10.0,10.0,84,0.00,,,0.00,meteohub,2013-01-08 23:57:00,
2013-01-08 19:02:00,40.8,36.3,30.42,WNW,297,5.0,10.0,84,0.00,,,0.00,meteohub,2013-01-09 00:02:00,
2013-01-08 19:07:00,40.8,36.3,30.41,NNW,336,4.0,10.0,84,0.00,,,0.00,meteohub,2013-01-09 00:07:00,
2013-01-08 19:12:00,40.8,36.7,30.41,WNW,295,4.0,10.0,85,0.00,,,0.00,meteohub,2013-01-09 00:12:00,
2013-01-08 19:17:00,40.8,36.7,30.41,NW,306,5.0,10.0,85,0.00,,,0.00,meteohub,2013-01-09 00:17:00,
2013-01-08 19:22:00,40.6,36.5,30.41,NW,309,6.0,9.0,85,0.00,,,0.00,meteohub,2013-01-09 00:22:00,
2013-01-08 19:27:00,40.6,36.5,30.41,NNW,344,6.0,10.0,85,0.00,,,0.00,meteohub,2013-01-09 00:27:00,
2013-01-08 19:32:00,40.6,36.5,30.42,WNW,289,3.0,10.0,85,0.00,,,0.00,meteohub,2013-01-09 00:32:00,
2013-01-08 19:37:00,40.5,36.7,30.42,WNW,302,2.0,10.0,86,0.00,,,0.00,meteohub,2013-01-09 00:37:00,
2013-01-08 19:42:00,40.5,36.7,30.42,NNW,332,7.0,10.0,86,0.00,,,0.00,meteohub,2013-01-09 00:42:00,
2013-01-08 19:47:00,40.5,36.7,30.42,WNW,300,6.0,8.0,86,0.00,,,0.00,meteohub,2013-01-09 00:47:00,
2013-01-08 19:52:00,40.3,36.5,30.41,North,0,5.0,10.0,86,0.00,,,0.00,meteohub,2013-01-09 00:52:00,
2013-01-08 19:57:00,40.3,36.7,30.41,NW,321,7.0,10.0,87,0.00,,,0.00,meteohub,2013-01-09 00:57:00,
2013-01-08 20:02:00,40.3,36.5,30.41,NNW,342,4.0,11.0,86,0.00,,,0.00,meteohub,2013-01-09 01:02:00,
2013-01-08 20:07:00,40.3,36.7,30.42,NW,325,6.0,11.0,87,0.00,,,0.00,meteohub,2013-01-09 01:07:00,
2013-01-08 20:12:00,40.3,36.7,30.41,WNW,303,6.0,11.0,87,0.00,,,0.00,meteohub,2013-01-09 01:12:00,
2013-01-08 20:17:00,40.3,36.7,30.41,NW,311,6.0,11.0,87,0.00,,,0.00,meteohub,2013-01-09 01:17:00,
2013-01-08 20:22:00,40.3,36.7,30.41,NNW,333,3.0,12.0,87,0.00,,,0.00,meteohub,2013-01-09 01:22:00,
2013-01-08 20:27:00,40.3,36.5,30.41,WNW,286,5.0,12.0,86,0.00,,,0.00,meteohub,2013-01-09 01:27:00,
2013-01-08 20:32:00,40.3,36.5,30.41,NW,310,3.0,12.0,86,0.00,,,0.00,meteohub,2013-01-09 01:32:00,
2013-01-08 20:37:00,40.1,36.3,30.41,NW,322,5.0,10.0,86,0.00,,,0.00,meteohub,2013-01-09 01:37:00,
2013-01-08 20:42:00,39.9,36.1,30.41,North,5,2.0,10.0,86,0.00,,,0.00,meteohub,2013-01-09 01:42:00,
2013-01-08 20:47:00,39.9,36.3,30.41,North,9,3.0,8.0,87,0.00,,,0.00,meteohub,2013-01-09 01:47:00,
2013-01-08 20:52:00,39.9,36.3,30.42,NW,322,3.0,8.0,87,0.00,,,0.00,meteohub,2013-01-09 01:52:00,
2013-01-08 20:57:00,39.9,36.3,30.41,ENE,69,3.0,8.0,87,0.00,,,0.00,meteohub,2013-01-09 01:57:00,
2013-01-08 21:02:00,39.9,36.3,30.41,NW,317,4.0,8.0,87,0.00,,,0.00,meteohub,2013-01-09 02:02:00,
2013-01-08 21:07:00,39.9,36.3,30.41,NW,310,5.0,10.0,87,0.00,,,0.00,meteohub,2013-01-09 02:07:00,
2013-01-08 21:12:00,39.7,36.1,30.42,NNE,19,3.0,10.0,87,0.00,,,0.00,meteohub,2013-01-09 02:12:00,
2013-01-08 21:17:00,39.7,36.1,30.42,WNW,299,1.0,10.0,87,0.00,,,0.00,meteohub,2013-01-09 02:17:00,
2013-01-08 21:22:00,39.6,36.0,30.42,NW,306,2.0,6.0,87,0.00,,,0.00,meteohub,2013-01-09 02:22:00,
2013-01-08 21:27:00,39.6,36.0,30.42,WNW,286,4.0,6.0,87,0.00,,,0.00,meteohub,2013-01-09 02:27:00,
2013-01-08 21:32:00,39.6,36.3,30.42,NNW,346,3.0,9.0,88,0.00,,,0.00,meteohub,2013-01-09 02:32:00,
2013-01-08 21:37:00,39.4,36.1,30.42,NW,313,3.0,9.0,88,0.00,,,0.00,meteohub,2013-01-09 02:37:00,
2013-01-08 21:42:00,39.4,36.1,30.42,NW,325,1.0,9.0,88,0.00,,,0.00,meteohub,2013-01-09 02:42:00,
2013-01-08 21:47:00,39.4,36.1,30.42,NNW,328,4.0,8.0,88,0.00,,,0.00,meteohub,2013-01-09 02:47:00,
2013-01-08 21:52:00,39.2,36.0,30.42,NNW,327,3.0,8.0,88,0.00,,,0.00,meteohub,2013-01-09 02:52:00,
2013-01-08 21:57:00,39.2,36.0,30.42,WNW,292,1.0,8.0,88,0.00,,,0.00,meteohub,2013-01-09 02:57:00,
2013-01-08 22:02:00,39.0,35.8,30.42,WNW,299,0.0,7.0,88,0.00,,,0.00,meteohub,2013-01-09 03:02:00,
2013-01-08 22:07:00,39.0,35.8,30.42,WNW,303,4.0,7.0,88,0.00,,,0.00,meteohub,2013-01-09 03:07:00,
2013-01-08 22:12:00,38.8,35.6,30.42,NW,307,4.0,7.0,88,0.00,,,0.00,meteohub,2013-01-09 03:12:00,
2013-01-08 22:17:00,38.8,35.6,30.42,NW,315,3.0,6.0,88,0.00,,,0.00,meteohub,2013-01-09 03:17:00,
2013-01-08 22:22:00,38.7,35.4,30.42,NW,313,1.0,6.0,88,0.00,,,0.00,meteohub,2013-01-09 03:22:00,
2013-01-08 22:27:00,38.7,35.4,30.42,WNW,292,2.0,6.0,88,0.00,,,0.00,meteohub,2013-01-09 03:27:00,
2013-01-08 22:32:00,38.5,35.2,30.42,WNW,295,2.0,6.0,88,0.00,,,0.00,meteohub,2013-01-09 03:32:00,
2013-01-08 22:37:00,38.3,35.1,30.42,NW,306,2.0,4.0,88,0.00,,,0.00,meteohub,2013-01-09 03:37:00,
2013-01-08 22:42:00,38.1,34.9,30.41,NW,306,0.0,4.0,88,0.00,,,0.00,meteohub,2013-01-09 03:42:00,
2013-01-08 22:47:00,37.9,34.7,30.41,NW,306,1.0,4.0,88,0.00,,,0.00,meteohub,2013-01-09 03:47:00,
2013-01-08 22:52:00,37.8,34.5,30.41,WNW,302,2.0,4.0,88,0.00,,,0.00,meteohub,2013-01-09 03:52:00,
2013-01-08 23:57:00,34.3,31.6,30.43,WNW,302,0.0,2.0,90,0.00,,,0.00,meteohub,2013-01-09 04:57:00,